{"data":{"norad_id":49078,"epoch":"2026-09-19T22:25:00.509088Z","epoch_age_seconds":74669,"freshness":"FRESH","line1":"1 49078U 21075D   26262.93403367  .00000022  00000+0  26537-4 0  9996","line2":"2 49078  87.8984 331.8478 0001803 106.4289 253.7038 13.12442711247614","mean_motion":13.12442711,"eccentricity":0.0001803,"inclination_deg":87.8984,"raan_deg":331.8478,"arg_perigee_deg":106.4289,"mean_anomaly_deg":253.7038,"bstar":2.6537e-5,"rev_number":24761,"period_min":109.71907481606,"perigee_km":1212.3555929218,"apogee_km":1215.0932181447,"semimajor_km":7591.8614055333,"source":"CELESTRAK","updated_at":"2026-09-20T09:00:44.631286Z"}}